Tracking 31027 objects as of 19-Jul-2025
HD Live streaming from Space Station
objects crossing your sky now

COSMOS 1275 DEB

Track COSMOS 1275 DEB now!
10-day predictions


NORAD ID: 15766
Int'l Code: 1981-053KE
Perigee: 750.2 km
Apogee: 761.8 km
Inclination: 82.9 °
Period: 99.8 minutes
Semi major axis: 7127 km
RCS: 0.0112 m2 (small)
Launch date: June 4, 1981
Source: Commonwealth of Independent States (former USSR) (CIS)
Launch site: PLESETSK MISSILE AND SPACE COMPLEX (PKMTR)

Note: This is SATELLITE DEBRIS
Your satellite tracking list
MAROC TUBSAT
Track 1 satellite(s)




NASA's NSSDC Master Catalog

Two Line Element Set (TLE):
1 15766U 81053KB  25199.48332309  .00003694  00000-0  10998-2 0  9991
2 15766  82.9353 211.8724 0008118 153.8703 206.2902 14.42920946 65943
Source of the keplerian elements: AFSPC